Regional Weather Roundup
Issued by NWS

Home | Current Version | Previous Version | Graphics & Text | Print | Product List | Glossary On
Versions: 1 2 3 4 5 6 7 8 9 10 11 12 13 14 15 16 17 18 19 20 21 22 23 24 25 26 27 28 29 30 31 32 33 34 35 36 37 38 39 40 41 42 43 44 45 46 47 48 49 50
000
ASUS43 KLMK 080702
RWRKY
KENTUCKY REGIONAL WEATHER ROUNDUP
NATIONAL WEATHER SERVICE LOUISVILLE KY
200 AM EST THU DEC 08 2016

NOTE "FAIR" INDICATES FEW OR NO CLOUDS BELOW 12,000 FEET
WITH NO SIGNIFICANT WEATHER AND/OR OBSTRUCTIONS TO VISIBILITY.

KYZ001>023-026-027-061>063-070>075-080800-
WESTERN AND SOUTH CENTRAL KENTUCKY

CITY           SKY/WX    TMP DP  RH WIND       PRES   REMARKS
PADUCAH        CLOUDY    36  20  52 NW6       30.31R WCI  31
HENDERSON      CLOUDY    34  19  55 NW8       30.29R WCI  27
OWENSBORO      NOT AVBL
HOPKINSVILLE   CLOUDY    36  22  58 NW5       30.27R WCI  32
BOWLING GREEN  CLOUDY    36  24  62 NW8       30.26R WCI  30
GLASGOW        NOT AVBL
$$

KYZ024-025-028>034-038-045-046-053-080800-
NORTH CENTRAL KENTUCKY

CITY           SKY/WX    TMP DP  RH WIND       PRES   REMARKS
LOUISVILLE/SDF NOT AVBL
LOUISVILLE/LOU PTCLDY    34  22  61 NW14      30.23R WCI  25
FORT KNOX      MOCLDY    32  22  68 NW8       30.21R WCI  25
$$

KYZ035>037-039>044-047>052-055>060-089>105-080800-
NORTHEAST KENTUCKY

CITY           SKY/WX    TMP DP  RH WIND       PRES   REMARKS
LEXINGTON      NOT AVBL
COVINGTON      MOCLDY    30  21  69 NW12      30.16F WCI  20
FRANKFORT      MOCLDY    33  22  63 W6        30.18S WCI  28
$$

KYZ054-064>069-076>088-106>120-080800-
SOUTHEAST KENTUCKY

CITY           SKY/WX    TMP DP  RH WIND       PRES   REMARKS
JACKSON        CLOUDY    34  23  64 CALM      30.14R
LONDON         PTCLDY    35  23  61 CALM      30.16R
SOMERSET       NOT AVBL
MIDDLESBORO    NOT AVBL
MONTICELLO     NOT AVBL
$$




USA.gov is the U.S. government's official web portal to all federal, state and local government web resources and services.